User: anonymous   Login
Location: UBC Liquid-Mirror Observatory
(49.2876°N, 122.5728°W)
Time: 08:25:58
(UTC-07:00)
Language:

Cosmos 1315 - Orbit

View from above orbital plane
View from above orbital plane
View from above satellite
View from above satellite

Ground track
Ground track

The orbit data is extracted from the following two-line orbital elements,

1 12903U 81103A   14294.72942641  .00047110  00000-0  75021-3 0  3112
2 12903 081.1345 354.2002 0004322 192.0254 305.5167 15.53055472809910
Epoch (UTC): 21 October 2014 17:30:22
Eccentricity: 0.0004322
inclination: 81.1345°
perigee height: 405 km
apogee height: 411 km
right ascension of ascending node: 354.2002°
argument of perigee: 192.0254°
revolutions per day: 15.53055472
mean anomaly at epoch: 305.5167°
orbit number at epoch: 80991

The dashed part of the orbit path shows where the satellite is in the earth's shadow,  

DLR